www.pogodaiklimat.ru

Погода и климат >> Архив погоды >> Парагвай >> Puerto Casado


ПОГОДА в Puerto Casado

  • Прогноз погоды в Puerto Casado
  • Монитор погоды в Puerto Casado
  • Климат города

АРХИВ ПОГОДЫ в Puerto Casado

Время (UTC), дата Ветер
(напр.,м/с)
 
Видим.   Явления Облачность Т
(С)
Тd
(С)
f
(%)
Тe
(С)
Тes
(С)
Комфортность P
(гПа)
Po
(гПа)
Тmin
(С)
Tmax
(С)
R
(мм)
R24
(мм)
S
(см)
00 5.12 штиль 0 20 км 5/5 450 м
[Sc]
+27.0 +23.6 82 +37 +37 очень
душно
1009.3 1000.4 +29.0
03 5.12 штиль 0 20 км 8/4 450 м
[Sc Ac As]
+26.0 +22.7 82 +34 +34 очень
душно
1008.5 999.6
06 5.12 штиль 0 20 км 9/0 2000 м
[Ac As]
+24.8 +20.5 77 +31 +31 очень
душно
1007.8 998.8
09 5.12 штиль 0 20 км 9/6 450 м
[Sc Ac As]
+25.0 +20.9 78 +31 +31 очень
душно
1008.7 999.8
12 5.12 Ю 1 20 км 10/6 300 м
[Sc Ac As]
+27.6 +22.3 73 +36 +37 очень
душно
1010.5 1001.6 +23.6 0.2
15 5.12 Ю 1 20 км 9/4 300 м
[Sc Ac As]
+30.0 +22.7 65 +40 +46 очень
душно
1010.5 1001.6
18 5.12 СВ 1 20 км 8/4 300 м
[Sc Ac As]
+31.2 +22.2 59 +40 +47 очень
душно
1009.1 1000.3
21 5.12 СВ 1 20 км {дождь} 8/4 300 м
[Sc Ac As]
+27.6 +23.8 80 +38 +39 очень
душно
1009.2 1000.3 13
00 6.12 штиль 0 20 км 8/4 450 м
[Sc Ac As]
+27.0 +22.4 76 +35 +35 очень
душно
1010.2 1001.3 +32.0 13
03 6.12 штиль 0 20 км 5/0 2000 м
[Ac As]
+26.0 +21.5 76 +33 +33 очень
душно
1010.6 1001.6
06 6.12 штиль 0 20 км 8/0 2000 м
[Ac As]
+24.6 +20.6 78 +31 +31 очень
душно
1009.6 1000.6
09 6.12 штиль 0 20 км 5/0 2000 м
[Ac As]
+24.2 +20.8 81 +30 +30 очень
душно
1009.8 1000.8
12 6.12 С 1 20 км 8/3 450 м
[Sc Cs]
+26.6 +21.3 73 +34 +39 очень
душно
1009.9 1000.9 +24.0 13
15 6.12 С 1 20 км 8/3 450 м
[Sc Cs]
+26.6 +21.3 73 +34 +49 очень
душно
1009.9 1000.9 +24.0 13
18 6.12 С 1 20 км 8/3 800 м
[Cb calv Ac cuf]
+31.4 +22.2 58 +40 +47 очень
душно
1008.1 999.3
21 6.12 штиль 0 20 км 5/3 800 м
[Cu med, cong Cs]
+30.0 +22.7 65 +40 +42 очень
душно
1008.1 999.3
00 7.12 ЮВ 1 20 км 4/0 2000 м
[Ac und]
+29.2 +21.4 63 +37 +37 очень
душно
1006.1 997.3 +32.0
03 7.12 штиль 0 20 км 6/0 2000 м
[Ac As]
+28.0 +23.6 77 +38 +38 очень
душно
1007.1 998.3
06 7.12 штиль 0 20 км 6/0 2000 м
[Ac As]
+26.8 +21.4 72 +34 +34 очень
душно
1009.3 1000.4
09 7.12 Ю 1 20 км 8/4 450 м
[Sc Ac As]
+25.0 +22.0 83 +32 +32 очень
душно
1010.8 1001.8
12 7.12 штиль 0 20 км 8/4 450 м
[Sc Ac As Ci fib]
+29.2 +21.4 63 +37 +41 очень
душно
1010.3 1001.4 +24.8
15 7.12 С 4 20 км 9/4 800 м
[Cu med, cong Ac As]
+27.0 +23.9 83 +37 +41 очень
душно
1008.1 999.2
18 7.12 С 1 20 км 9/4 800 м
[Cu med, cong Ac As]
+32.0 +21.7 55 +41 +45 опасность
перегрева
1007.0 998.3
21 7.12 штиль 0 20 км 9/5 800 м
[Cu med, cong Ac As]
+30.0 +22.7 65 +40 +40 очень
душно
1005.3 996.5
00 8.12 штиль 0 20 км зарница {гроза} 9/4 800 м
[Cb cap Ac As]
+27.0 +22.6 77 +36 +36 очень
душно
1006.2 997.3 +32.0 6
03 8.12 штиль 0 20 км 8/4 300 м
[Sc Ac As]
+26.0 +22.9 83 +35 +35 очень
душно
1006.3 997.4
06 8.12 штиль 0 20 км 10/0 2000 м
[Ac As]
+25.0 +20.9 78 +31 +31 очень
душно
1006.6 997.6
12 8.12 С 1 20 км 8/3 450 м
[Sc Ci]
+27.2 +22.5 76 +36 +42 очень
душно
1007.5 998.6 +24.2 6
15 8.12 С 1 20 км 8/4 800 м
[Cu hum Ci]
+31.0 +22.2 60 +40 +53 опасность
солнечного
удара
1009.2 1000.4
18 8.12 С 1 20 км 8/3 800 м
[Cu hum Ci]
+33.0 +23.0 56 +43 +55 опасность
перегрева
1009.2 1000.4
21 8.12 С 1 20 км 5/5 800 м
[Cu hum]
+33.2 +21.0 49 +41 +42 опасность
перегрева
1004.9 996.2
00 9.12 штиль 0 20 км 3/0
[Ci]
+30.0 +21.0 59 +38 +38 очень
душно
1004.7 995.9 +33.2
03 9.12 штиль 0 20 км ясно +28.6 +21.9 67 +37 +37 очень
душно
1005.1 996.3
06 9.12 штиль 0 20 км ясно +27.0 +22.6 77 +36 +36 очень
душно
1006.3 997.4
09 9.12 штиль 0 20 км 5/0
[Ci]
+26.4 +24.3 88 +37 +37 очень
душно
1006.3 997.4
12 9.12 В 1 20 км 6/0
[Ci]
+30.0 +22.9 66 +40 +48 очень
душно
1007.2 998.4 +26.0
15 9.12 С 1 20 км 6/4 800 м
[Cu med, cong Ci]
+33.2 +22.8 55 +43 +57 опасность
перегрева
1006.8 998.1
18 9.12 С 2 20 км гроза без осадков 9/4 800 м
[Cb cap Ac As]
+34.0 +22.4 51 +43 +48 опасность
перегрева
1005.7 996.9
21 9.12 В 1 20 км гроза без осадков {ливн. осадки} 10/4 800 м
[Cb cap Ac As]
+25.0 +22.0 83 +32 +33 очень
душно
1005.2 996.3 6
00 10.12 ЮВ 1 20 км зарница {гроза} 10/4 800 м
[Cb cap Ac As]
+24.8 +22.1 85 +32 +32 очень
душно
1007.3 998.3 +34.0 6
03 10.12 ЮВ 1 20 км зарница {гроза} 10/4 800 м
[Cb cap Ac As]
+24.8 +22.1 85 +32 +32 очень
душно
1007.3 998.3 +34.0 6
06 10.12 штиль 0 20 км 10/5 450 м
[Sc Ac As]
+25.0 +22.1 84 +32 +32 очень
душно
1007.4 998.4
09 10.12 ЮВ 2 20 км 6/0 2000 м
[Ac As]
+22.6 +19.1 81 +29 +29 очень
душно
1008.7 999.7
12 10.12 Ю 1 20 км 8/4 450 м
[Sc Ac As]
+25.0 +23.3 90 +33 +36 очень
душно
1007.8 998.8 +21.0 6
15 10.12 В 2 20 км 8/4 800 м
[Cu hum Ci]
+30.0 +21.0 59 +38 +49 очень
душно
1008.0 999.2
18 10.12 С 2 20 км 8/4 800 м
[Cu hum Cs]
+33.0 +17.4 39 +37 +46 очень
душно
1007.3 998.3
21 10.12 Ю 2 20 км 8/1 800 м
[Cu hum Cs]
+33.2 +19.2 44 +39 +41 очень
душно
1005.8 997.1
00 11.12 штиль 0 20 км 4/0
[Ci]
+30.0 +22.7 65 +40 +40 очень
душно
1007.2 998.4 +33.4
03 11.12 В 1 20 км ясно +29.0 +21.6 64 +37 +37 очень
душно
1006.1 997.3
06 11.12 штиль 0 20 км ясно +27.2 +21.0 69 +34 +34 очень
душно
1006.5 997.6
09 11.12 ЮВ 1 20 км 4/0
[Ci]
+23.6 +19.5 78 +29 +29 душно 1007.6 998.6
12 11.12 Ю 1 20 км 4/0
[Ci fib]
+29.0 +23.2 71 +39 +48 очень
душно
1008.4 999.6 +23.0
15 11.12 С 2 20 км 4/3 800 м
[Cu hum Ci fib]
+32.4 +21.6 53 +41 +55 опасность
перегрева
1007.6 998.9
18 11.12 Ю 1 20 км 4/4 800 м
[Cu hum]
+35.2 +19.9 41 +41 +53 опасность
перегрева
1008.6 999.9

 

Местоположение метеостанции Puerto Casado (Парагвай): широта -22.28 долгота -57.86 высота над уровнем моря 87 м.

В архиве по умолчанию представлена погода в Puerto Casado за последнюю неделю. Архивные данные за месяц целиком и за предыдущие месяцы, начиная с января 2011 года, Вы можете получить, выбрав интересующий диапазон дат из раскрывающегося списка и нажав кнопку "Ввод!".

Внимание! Время в таблицах - всемирное. Для получения местного времени необходимо прибавить поправку, которая в Puerto Casado равна -4 ч.

Смотрите также архив погоды в соседних городах и на ближайших метеорологических станциях:

Погода в Concepcion (Парагвай) (138 км)
Погода в Pozo Colorado (Парагвай) (162 км)
Погода в San Pedro (Парагвай) (213 км)
Погода в Pedro Juan Caballer (Парагвай) (222 км)
Погода в Ponta Pora (Бразилия) (224 км)
Погода в Ponta Pora (Бразилия) (241 км)
Погода в Miranda (Бразилия) (256 км)
Погода в Amambai (Бразилия) (272 км)
Погода в Mariscal Estigar (Парагвай) (284 км)
Погода в Maracaju (Бразилия) (286 км)

Пояснения к столбцам:

Ветер - указаны скорость ветра в м/с - средняя за 10 мин, порывы в срок и между сроками (в фигурных скобках) и направление, откуда дует ветер: С - северный, СВ - северо-восточный, В - восточный, ЮВ - юго-восточный, Ю - южный, ЮЗ - юго-западный, З - западный, СЗ - северо-западный.
Видимость - горизонтальная дальность видимости в метрах или километрах. При видимости от 1 до 10 км при отсутствии осадков обычно наблюдается дымка, при ухудшении видимости до 1 км и менее - туман. В сухую погоду видимость может ухудшаться дымом, пылью или мглою.
Явления - указаны атмосферные явления, наблюдавшиеся в срок или в последний час перед сроком; фигурными скобками обозначены явления, наблюдавшиеся между сроками (за 1-3 часа до срока); квадратными скобками обозначены град или гололедные отложения с указанием их диаметра в мм.
Облачность - указаны через наклонную черту общая и нижняя облачность в баллах и высота нижней границы облаков в метрах; квадратными скобками обозначены формы облаков: Ci - перистые, Cs - перисто-слоистые, Cc - перисто-кучевые, Ac - высококучевые, As - высокослоистые, Sc - слоисто-кучевые, Ns - слоисто-дождевые, Cu - кучевые, Cb - кучево-дождевые. Подробнее классификацию облаков см. в Атласе облаков (PDF).
T - Температура воздуха - температура, измеренная на высоте 2 м над землей.
Td - Температура точки росы - температура, при понижении до которой содержащийся в воздухе водяной пар достигнет насыщения.
f - Относительная влажность воздуха - влажноcть воздуха, измеренная на высоте 2 м над землей.
Te - Эффективная температура - температура, которую ощущает одетый по сезону человек в тени. Характеристика душности погоды. При расчете учитывается влияние влажности воздуха и скорости ветра на теплоощущения человека.
Tes - Эффективная температура на солнце - температура, которую ощущает человек, с поправкой на солнечный нагрев. Характеристика знойности погоды. Зависит от высоты солнца над горизонтом, облачности и скорости ветра. Ночью, в пасмурную погоду, а также при ветре 12 м/с и более поправка равна нулю.
P - Атмосферное давление - приведенное к уровню моря атмосферное давление.
Po - Атмосферное давление - измеренное на уровне метеостанции атмосферное давление.
Tmin - Минимальная температура - минимум температуры воздуха на высоте 2 м над землей.
Tmax - Максимальная температура - максимум температуры воздуха на высоте 2 м над землей.
R - Количество осадков - Количество выпавших осадков за период времени, мм. При наведении курсора мыши на число - период времени, за который выпало указанное количество осадков.
R24 - Количество осадков - Количество выпавших осадков за 24 часа, мм.
S - Снежный покров - Высота снежного покрова, см. При наведении курсора мыши на число - состояние снежного покрова и степень покрытия местности в баллах.